Location: McFarlands Corners
(41.4117°N, 81.3382°W)
Time: 04:35:30
(UTC+00:00)

A-11 Canister half - Pass Details

Date: 16 February 2026
Orbit: 1524 x 1683 km, 47.3° (Epoch: 14 March)

Event Time Altitude Azimuth Distance (km) Brightness Sun altitude
Rises 23:40:56 0° 259° (W) 4,703 14.1 -8.2°
Reaches altitude 10° 23:44:02 10° 262° (W) 3,708 12.7 -8.8°
Maximum altitude 23:53:20 69° 345° (NNW) 1,617 9.2 -10.5°
Enters shadow 00:01:53 13° 68° (ENE) 3,470 10.3 -12.1°
